| time (UTC) | temp F | wind direction | speed knots | gust knots | rain 1hr in | rain 24hr in | rain mn in | humidity % | barometer mb |
| 20260507070512 | 55 | 107 | 0.0 | 0.9 | 0.00 | 0.00 | 0.00 | 79 | 1013.3 |
| 20260507070023 | 55 | 120 | 0.0 | 1.7 | 0.00 | 0.00 | 0.00 | 80 | 1013.1 |
| 20260507065511 | 54 | 120 | 0.0 | 1.7 | 0.00 | 0.00 | 0.00 | 80 | 1013.3 |
| 20260507065009 | 54 | 120 | 0.0 | 0.9 | 0.00 | 0.00 | 0.00 | 81 | 1013.2 |
| 20260507064527 | 54 | 120 | 0.0 | 0.9 | 0.00 | 0.00 | 0.00 | 81 | 1013.3 |
| 20260507064008 | 54 | 120 | 0.0 | 0.9 | 0.00 | 0.00 | 0.00 | 81 | 1013.2 |
| 20260507063511 | 54 | 120 | 0.0 | 0.9 | 0.00 | 0.00 | 0.00 | 82 | 1013.3 |
| 20260507063030 | 54 | 120 | 0.0 | 0.9 | 0.00 | 0.00 | 0.00 | 82 | 1013.3 |
| 20260507062510 | 54 | 120 | 0.0 | 0.9 | 0.00 | 0.00 | 0.00 | 83 | 1013.2 |
| 20260507062006 | 54 | 120 | 0.0 | 0.9 | 0.00 | 0.00 | 0.00 | 84 | 1013.1 |
| 20260507061528 | 54 | 120 | 0.0 | 0.9 | 0.00 | 0.00 | 0.00 | 82 | 1013.1 |
| 20260507061008 | 54 | 120 | 0.0 | 0.9 | 0.00 | 0.00 | 0.00 | 84 | 1013.0 |
| 20260507060506 | 54 | 120 | 0.0 | 0.9 | 0.00 | 0.00 | 0.00 | 81 | 1013.0 |
| 20260507060029 | 54 | 120 | 0.0 | 0.9 | 0.00 | 0.00 | 0.00 | 81 | 1012.9 |
| 20260507055508 | 54 | 120 | 0.0 | 0.9 | 0.00 | 0.00 | 0.00 | 82 | 1012.9 |
| 20260507055019 | 54 | 120 | 0.0 | 0.9 | 0.00 | 0.00 | 0.00 | 82 | 1012.8 |
| 20260507054526 | 54 | 120 | 0.0 | 0.9 | 0.00 | 0.00 | 0.00 | 81 | 1012.8 |
| 20260507054007 | 54 | 120 | 0.0 | 0.9 | 0.00 | 0.00 | 0.00 | 81 | 1012.8 |
| 20260507053511 | 54 | 120 | 0.0 | 0.9 | 0.00 | 0.00 | 0.00 | 80 | 1012.7 |
| 20260507053028 | 54 | 108 | 0.0 | 0.9 | 0.00 | 0.00 | 0.00 | 82 | 1012.7 |
| 20260507052507 | 53 | 108 | 0.0 | 0.9 | 0.00 | 0.00 | 0.00 | 82 | 1012.6 |
| 20260507052011 | 53 | 108 | 0.0 | 0.9 | 0.00 | 0.00 | 0.00 | 84 | 1012.5 |
| 20260507051516 | 53 | 108 | 0.0 | 0.9 | 0.00 | 0.00 | 0.00 | 84 | 1012.5 |
| 20260507051009 | 53 | 108 | 0.0 | 0.9 | 0.00 | 0.00 | 0.00 | 84 | 1012.5 |
| 20260507050511 | 53 | 108 | 0.0 | 0.9 | 0.00 | 0.00 | 0.00 | 84 | 1012.5 |
| 20260507050030 | 53 | 108 | 0.0 | 0.9 | 0.00 | 0.00 | 0.00 | 84 | 1012.5 |
| 20260507045506 | 52 | 108 | 0.0 | 0.9 | 0.00 | 0.00 | 0.00 | 84 | 1012.4 |
| 20260507045008 | 52 | 108 | 0.0 | 0.9 | 0.00 | 0.00 | 0.00 | 85 | 1012.4 |
| 20260507044539 | 52 | 108 | 0.0 | 0.9 | 0.00 | 0.00 | 0.00 | 86 | 1012.2 |
| 20260507044014 | 52 | 108 | 0.0 | 0.9 | 0.00 | 0.00 | 0.00 | 85 | 1012.3 |
| 20260507043509 | 52 | 108 | 0.0 | 0.9 | 0.00 | 0.00 | 0.00 | 85 | 1012.2 |
| 20260507043029 | 52 | 108 | 0.0 | 0.9 | 0.00 | 0.00 | 0.00 | 84 | 1012.1 |
| 20260507042512 | 52 | 108 | 0.0 | 0.9 | 0.00 | 0.00 | 0.00 | 85 | 1012.0 |
| 20260507042010 | 52 | 107 | 0.0 | 0.9 | 0.00 | 0.00 | 0.00 | 85 | 1012.0 |
| 20260507041526 | 52 | 108 | 0.0 | 0.9 | 0.00 | 0.00 | 0.00 | 84 | 1012.0 |
| 20260507041008 | 52 | 108 | 0.0 | 0.9 | 0.00 | 0.00 | 0.00 | 83 | 1011.9 |
| 20260507040507 | 53 | 108 | 0.0 | 0.9 | 0.00 | 0.00 | 0.00 | 83 | 1012.0 |
| 20260507040019 | 53 | 107 | 0.0 | 0.9 | 0.00 | 0.00 | 0.00 | 83 | 1011.9 |
| 20260507035507 | 53 | 108 | 0.0 | 0.9 | 0.00 | 0.00 | 0.00 | 83 | 1011.9 |
| 20260507035007 | 52 | 108 | 0.0 | 0.9 | 0.00 | 0.00 | 0.00 | 84 | 1011.9 |
| 20260507034503 | 52 | 108 | 0.0 | 1.7 | 0.00 | 0.00 | 0.00 | 84 | 1011.8 |
| 20260507034004 | 52 | 108 | 0.0 | 1.7 | 0.00 | 0.00 | 0.00 | 84 | 1011.8 |
| 20260507033503 | 51 | 117 | 0.0 | 0.9 | 0.00 | 0.00 | 0.00 | 85 | 1011.8 |
| 20260507033009 | 51 | 117 | 0.0 | 0.9 | 0.00 | 0.00 | 0.00 | 84 | 1011.7 |
| 20260507032504 | 51 | 117 | 0.9 | 0.9 | 0.00 | 0.00 | 0.00 | 83 | 1011.9 |
| 20260507032006 | 52 | 90 | 0.0 | 0.9 | 0.00 | 0.00 | 0.00 | 82 | 1012.0 |
| 20260507031511 | 52 | 90 | 0.0 | 0.9 | 0.00 | 0.00 | 0.00 | 82 | 1012.0 |
| 20260507031011 | 52 | 90 | 0.0 | 0.9 | 0.00 | 0.00 | 0.00 | 82 | 1011.9 |
| 20260507030508 | 52 | 90 | 0.0 | 0.9 | 0.00 | 0.00 | 0.00 | 82 | 1011.9 |
| 20260507030018 | 52 | 90 | 0.0 | 0.9 | 0.00 | 0.00 | 0.00 | 82 | 1011.9 |
| 20260507025507 | 52 | 89 | 0.0 | 0.9 | 0.00 | 0.00 | 0.00 | 81 | 1011.7 |
| 20260507025007 | 52 | 89 | 0.0 | 0.9 | 0.00 | 0.00 | 0.00 | 81 | 1011.6 |
| 20260507024519 | 52 | 89 | 0.0 | 0.9 | 0.00 | 0.00 | 0.00 | 81 | 1011.6 |
| 20260507024008 | 52 | 89 | 0.0 | 1.7 | 0.00 | 0.00 | 0.00 | 81 | 1011.6 |
| 20260507023511 | 52 | 91 | 0.0 | 1.7 | 0.00 | 0.00 | 0.00 | 82 | 1011.6 |
| 20260507023003 | 51 | 135 | 0.0 | 0.9 | 0.00 | 0.00 | 0.00 | 83 | 1011.6 |
| 20260507022503 | 51 | 135 | 0.0 | 0.9 | 0.00 | 0.00 | 0.00 | 83 | 1011.7 |
| 20260507022006 | 51 | 135 | 0.0 | 0.9 | 0.00 | 0.00 | 0.00 | 81 | 1011.8 |
| 20260507021508 | 52 | 135 | 0.0 | 0.9 | 0.00 | 0.00 | 0.00 | 81 | 1011.9 |
| 20260507021010 | 52 | 135 | 0.0 | 0.9 | 0.00 | 0.00 | 0.00 | 80 | 1011.7 |
| 20260507020506 | 52 | 60 | 0.0 | 0.9 | 0.00 | 0.00 | 0.00 | 80 | 1011.7 |
| 20260507020011 | 52 | 60 | 0.0 | 0.9 | 0.00 | 0.00 | 0.00 | 80 | 1011.8 |
| 20260507015506 | 52 | 60 | 0.0 | 1.7 | 0.00 | 0.00 | 0.00 | 80 | 1011.7 |
| 20260507015010 | 53 | 60 | 0.0 | 1.7 | 0.00 | 0.00 | 0.00 | 79 | 1011.7 |
| 20260507014515 | 52 | 60 | 0.0 | 1.7 | 0.00 | 0.00 | 0.00 | 79 | 1011.7 |
| 20260507014009 | 52 | 80 | 0.0 | 1.7 | 0.00 | 0.00 | 0.00 | 79 | 1011.7 |
| 20260507013507 | 52 | 39 | 0.0 | 1.7 | 0.00 | 0.00 | 0.00 | 80 | 1011.7 |
| 20260507013022 | 52 | 65 | 0.0 | 0.9 | 0.00 | 0.00 | 0.00 | 80 | 1011.7 |
| 20260507012514 | 52 | 65 | 0.0 | 0.9 | 0.00 | 0.00 | 0.00 | 80 | 1011.7 |
| 20260507012010 | 52 | 65 | 0.0 | 0.9 | 0.00 | 0.00 | 0.00 | 79 | 1011.8 |
| 20260507011506 | 53 | 37 | 0.0 | 0.9 | 0.00 | 0.00 | 0.00 | 78 | 1011.8 |
| 20260507011004 | 53 | 37 | 0.0 | 2.6 | 0.00 | 0.00 | 0.00 | 78 | 1011.8 |
| 20260507010503 | 53 | 37 | 0.9 | 2.6 | 0.00 | 0.00 | 0.00 | 78 | 1011.9 |
| 20260507010008 | 53 | 19 | 0.0 | 2.6 | 0.00 | 0.00 | 0.00 | 77 | 1011.7 |
| 20260507005508 | 53 | 71 | 0.9 | 3.5 | 0.00 | 0.00 | 0.00 | 77 | 1011.8 |
| 20260507005009 | 53 | 20 | 0.9 | 3.5 | 0.00 | 0.00 | 0.00 | 77 | 1011.8 |
| 20260507004515 | 53 | 37 | 0.0 | 4.3 | 0.00 | 0.00 | 0.00 | 78 | 1011.7 |
| 20260507004007 | 53 | 207 | 0.9 | 4.3 | 0.00 | 0.00 | 0.00 | 77 | 1011.8 |
| 20260507003508 | 53 | 49 | 0.9 | 2.6 | 0.00 | 0.00 | 0.00 | 78 | 1011.8 |
| 20260507003019 | 53 | 18 | 0.9 | 2.6 | 0.00 | 0.00 | 0.00 | 78 | 1011.8 |
| 20260507002510 | 53 | 353 | 0.9 | 3.5 | 0.00 | 0.00 | 0.00 | 78 | 1011.8 |
| 20260507002009 | 53 | 22 | 0.9 | 3.5 | 0.00 | 0.00 | 0.00 | 78 | 1011.9 |
| 20260507001525 | 53 | 21 | 1.7 | 3.5 | 0.00 | 0.00 | 0.00 | 78 | 1012.0 |
| 20260507001012 | 52 | 31 | 0.9 | 3.5 | 0.00 | 0.00 | 0.00 | 80 | 1012.1 |
| 20260507000510 | 52 | 63 | 0.0 | 1.7 | 0.00 | 0.00 | 0.00 | 81 | 1012.2 |
| 20260507000006 | 53 | 63 | 0.0 | 1.7 | 0.00 | 0.00 | 0.00 | 81 | 1012.1 |
| 20260506235507 | 53 | 72 | 0.0 | 0.9 | 0.00 | 0.00 | 0.00 | 81 | 1012.0 |
| 20260506235008 | 53 | 48 | 0.0 | 0.9 | 0.00 | 0.00 | 0.00 | 81 | 1012.1 |
| 20260506234514 | 53 | 48 | 0.0 | 2.6 | 0.00 | 0.00 | 0.00 | 81 | 1012.1 |
| 20260506234006 | 53 | 48 | 0.0 | 2.6 | 0.00 | 0.00 | 0.00 | 81 | 1012.1 |
| 20260506233507 | 53 | 31 | 0.9 | 0.9 | 0.00 | 0.00 | 0.00 | 81 | 1012.3 |
| 20260506233016 | 53 | 30 | 0.9 | 0.9 | 0.00 | 0.00 | 0.00 | 82 | 1012.2 |
| 20260506232509 | 53 | 13 | 0.0 | 1.7 | 0.00 | 0.00 | 0.00 | 82 | 1012.2 |
| 20260506232007 | 53 | 12 | 0.9 | 2.6 | 0.00 | 0.00 | 0.00 | 82 | 1012.3 |
| 20260506231519 | 53 | 30 | 0.9 | 4.3 | 0.00 | 0.00 | 0.00 | 81 | 1012.3 |
| 20260506231008 | 53 | 22 | 0.9 | 5.2 | 0.00 | 0.00 | 0.00 | 81 | 1012.5 |
| 20260506230510 | 53 | 344 | 1.7 | 6.1 | 0.00 | 0.00 | 0.00 | 80 | 1012.6 |
| 20260506230024 | 54 | 349 | 1.7 | 7.8 | 0.00 | 0.00 | 0.00 | 80 | 1012.5 |
| 20260506225508 | 54 | 4 | 2.6 | 8.7 | 0.00 | 0.00 | 0.00 | 79 | 1012.7 |
| 20260506225011 | 54 | 310 | 3.5 | 8.7 | 0.00 | 0.00 | 0.00 | 78 | 1012.5 |
| 20260506224507 | 54 | 6 | 1.7 | 7.0 | 0.00 | 0.00 | 0.00 | 78 | 1012.6 |
| 20260506224006 | 54 | 336 | 1.7 | 3.5 | 0.00 | 0.00 | 0.00 | 78 | 1012.5 |
| 20260506223505 | 55 | 320 | 0.9 | 3.5 | 0.00 | 0.00 | 0.00 | 77 | 1012.5 |
| 20260506223014 | 55 | 316 | 0.9 | 3.5 | 0.00 | 0.00 | 0.00 | 76 | 1012.4 |
| 20260506222507 | 55 | 26 | 0.9 | 3.5 | 0.00 | 0.00 | 0.00 | 76 | 1012.3 |
| 20260506222012 | 55 | 12 | 0.9 | 3.5 | 0.00 | 0.00 | 0.00 | 75 | 1012.2 |
| 20260506221520 | 55 | 345 | 0.9 | 2.6 | 0.00 | 0.00 | 0.00 | 75 | 1012.3 |
| 20260506221011 | 55 | 8 | 0.9 | 2.6 | 0.00 | 0.00 | 0.00 | 75 | 1012.1 |
| 20260506220508 | 55 | 29 | 0.9 | 3.5 | 0.00 | 0.00 | 0.00 | 75 | 1011.9 |
| 20260506220030 | 55 | 49 | 0.9 | 3.5 | 0.00 | 0.00 | 0.00 | 76 | 1011.9 |
| 20260506215509 | 55 | 25 | 0.9 | 4.3 | 0.00 | 0.00 | 0.00 | 77 | 1011.8 |
| 20260506215009 | 55 | 40 | 0.9 | 4.3 | 0.00 | 0.00 | 0.00 | 78 | 1011.8 |
| 20260506214527 | 55 | 23 | 0.9 | 1.7 | 0.00 | 0.00 | 0.00 | 79 | 1011.8 |
| 20260506214009 | 55 | 103 | 0.0 | 0.9 | 0.00 | 0.00 | 0.00 | 80 | 1011.6 |
| 20260506213506 | 55 | 48 | 0.0 | 0.9 | 0.00 | 0.00 | 0.00 | 80 | 1011.7 |
| 20260506213015 | 55 | 48 | 0.0 | 0.9 | 0.00 | 0.00 | 0.00 | 80 | 1011.8 |
| 20260506212506 | 55 | 48 | 0.0 | 0.9 | 0.00 | 0.00 | 0.00 | 80 | 1011.7 |
| 20260506212006 | 55 | 48 | 0.0 | 0.9 | 0.00 | 0.00 | 0.00 | 80 | 1011.7 |
| 20260506211514 | 55 | 48 | 0.0 | 1.7 | 0.00 | 0.00 | 0.00 | 80 | 1011.7 |
| 20260506211007 | 55 | 48 | 0.0 | 2.6 | 0.00 | 0.00 | 0.00 | 79 | 1011.8 |
| 20260506210511 | 56 | 15 | 0.0 | 3.5 | 0.00 | 0.00 | 0.00 | 79 | 1011.7 |
| 20260506210020 | 56 | 12 | 0.9 | 8.7 | 0.00 | 0.00 | 0.00 | 78 | 1011.7 |
| 20260506205510 | 56 | 5 | 0.9 | 8.7 | 0.00 | 0.00 | 0.00 | 80 | 1011.9 |
| 20260506205008 | 56 | 276 | 2.6 | 8.7 | 0.00 | 0.00 | 0.00 | 80 | 1011.9 |
| 20260506204525 | 56 | 319 | 0.9 | 4.3 | 0.00 | 0.00 | 0.00 | 80 | 1011.8 |
| 20260506204010 | 56 | 22 | 1.7 | 4.3 | 0.00 | 0.00 | 0.00 | 80 | 1011.7 |
| 20260506203514 | 56 | 124 | 0.0 | 0.9 | 0.00 | 0.00 | 0.00 | 80 | 1011.7 |
| 20260506203026 | 56 | 15 | 0.0 | 2.6 | 0.00 | 0.00 | 0.00 | 80 | 1011.7 |
| 20260506202514 | 56 | 17 | 0.9 | 2.6 | 0.00 | 0.00 | 0.00 | 80 | 1011.5 |
| 20260506202006 | 56 | 30 | 0.0 | 0.9 | 0.00 | 0.00 | 0.00 | 80 | 1011.4 |
| 20260506201514 | 55 | 30 | 0.0 | 0.9 | 0.00 | 0.00 | 0.00 | 81 | 1011.4 |
| 20260506201008 | 55 | 30 | 0.0 | 0.9 | 0.00 | 0.00 | 0.00 | 81 | 1011.4 |
| 20260506200506 | 55 | 29 | 0.0 | 1.7 | 0.00 | 0.00 | 0.00 | 80 | 1011.4 |
| 20260506200024 | 56 | 316 | 0.0 | 1.7 | 0.00 | 0.00 | 0.00 | 80 | 1011.3 |
| 20260506195507 | 55 | 11 | 0.0 | 0.9 | 0.00 | 0.00 | 0.00 | 80 | 1011.2 |
| 20260506195013 | 56 | 352 | 0.0 | 1.7 | 0.00 | 0.00 | 0.00 | 80 | 1011.2 |
| 20260506194520 | 56 | 43 | 0.0 | 1.7 | 0.00 | 0.00 | 0.00 | 80 | 1011.2 |
| 20260506194012 | 56 | 27 | 0.9 | 2.6 | 0.00 | 0.00 | 0.00 | 80 | 1011.2 |
| 20260506193511 | 56 | 30 | 0.0 | 2.6 | 0.00 | 0.00 | 0.00 | 80 | 1011.1 |
| 20260506193026 | 56 | 4 | 0.0 | 2.6 | 0.00 | 0.00 | 0.00 | 79 | 1011.1 |
| 20260506192510 | 56 | 197 | 0.0 | 2.6 | 0.00 | 0.00 | 0.00 | 79 | 1011.1 |
| 20260506192009 | 56 | 174 | 0.9 | 2.6 | 0.00 | 0.00 | 0.00 | 79 | 1011.1 |
| 20260506191524 | 56 | 254 | 0.9 | 2.6 | 0.00 | 0.00 | 0.00 | 79 | 1011.0 |
| 20260506191010 | 56 | 251 | 0.9 | 2.6 | 0.00 | 0.00 | 0.00 | 79 | 1011.1 |
| 20260506190507 | 56 | 309 | 0.9 | 1.7 | 0.00 | 0.00 | 0.00 | 79 | 1011.0 |
| 20260506190014 | 56 | 11 | 0.9 | 3.5 | 0.00 | 0.00 | 0.00 | 78 | 1011.0 |
| 20260506185504 | 56 | 20 | 0.0 | 3.5 | 0.00 | 0.00 | 0.00 | 78 | 1011.0 |
| 20260506185007 | 57 | 176 | 0.0 | 3.5 | 0.00 | 0.00 | 0.00 | 78 | 1010.9 |
| 20260506184518 | 57 | 260 | 0.0 | 3.5 | 0.00 | 0.00 | 0.00 | 77 | 1010.9 |
| 20260506184006 | 57 | 20 | 0.9 | 4.3 | 0.00 | 0.00 | 0.00 | 77 | 1010.8 |
| 20260506183507 | 57 | 302 | 1.7 | 4.3 | 0.00 | 0.00 | 0.00 | 76 | 1010.8 |
| 20260506183024 | 57 | 309 | 0.9 | 3.5 | 0.00 | 0.00 | 0.00 | 76 | 1010.7 |
| 20260506182508 | 58 | 313 | 1.7 | 4.3 | 0.00 | 0.00 | 0.00 | 76 | 1010.8 |
| 20260506182006 | 58 | 318 | 1.7 | 4.3 | 0.00 | 0.00 | 0.00 | 75 | 1010.8 |
| 20260506181507 | 58 | 59 | 1.7 | 4.3 | 0.00 | 0.00 | 0.00 | 75 | 1010.6 |
| 20260506181005 | 58 | 327 | 2.6 | 4.3 | 0.00 | 0.00 | 0.00 | 74 | 1010.6 |
| 20260506180504 | 59 | 326 | 1.7 | 4.3 | 0.00 | 0.00 | 0.00 | 73 | 1010.6 |
| 20260506180010 | 59 | 168 | 0.9 | 3.5 | 0.00 | 0.00 | 0.00 | 73 | 1010.5 |
| 20260506175505 | 59 | 323 | 1.7 | 3.5 | 0.00 | 0.00 | 0.00 | 72 | 1010.4 |
| 20260506175006 | 60 | 309 | 0.9 | 3.5 | 0.00 | 0.00 | 0.00 | 72 | 1010.5 |
| 20260506174516 | 60 | 232 | 0.9 | 5.2 | 0.00 | 0.00 | 0.00 | 71 | 1010.6 |
| 20260506174007 | 61 | 25 | 1.7 | 5.2 | 0.00 | 0.00 | 0.00 | 71 | 1010.5 |
| 20260506173507 | 61 | 314 | 0.9 | 3.5 | 0.00 | 0.00 | 0.00 | 70 | 1010.3 |
| 20260506173019 | 62 | 26 | 1.7 | 4.3 | 0.00 | 0.00 | 0.00 | 68 | 1010.3 |
| 20260506172506 | 62 | 24 | 1.7 | 5.2 | 0.00 | 0.00 | 0.00 | 67 | 1010.3 |
| 20260506172008 | 62 | 304 | 0.9 | 5.2 | 0.00 | 0.00 | 0.00 | 67 | 1010.4 |
| 20260506171522 | 62 | 248 | 1.7 | 3.5 | 0.00 | 0.00 | 0.00 | 66 | 1010.3 |
| 20260506171004 | 62 | 270 | 0.9 | 3.5 | 0.00 | 0.00 | 0.00 | 69 | 1010.3 |
| 20260506170507 | 62 | 360 | 0.9 | 2.6 | 0.00 | 0.00 | 0.00 | 69 | 1010.3 |
| 20260506170007 | 62 | 27 | 0.9 | 3.5 | 0.00 | 0.00 | 0.00 | 70 | 1010.2 |
| 20260506165505 | 61 | 26 | 0.0 | 3.5 | 0.00 | 0.00 | 0.00 | 71 | 1010.3 |
| 20260506165008 | 61 | 236 | 0.0 | 1.7 | 0.00 | 0.00 | 0.00 | 71 | 1010.3 |
| 20260506164510 | 61 | 187 | 0.0 | 1.7 | 0.00 | 0.00 | 0.00 | 71 | 1010.3 |
| 20260506164009 | 61 | 184 | 0.0 | 2.6 | 0.00 | 0.00 | 0.00 | 71 | 1010.3 |
| 20260506163511 | 61 | 50 | 0.9 | 2.6 | 0.00 | 0.00 | 0.00 | 70 | 1010.3 |
| 20260506163031 | 61 | 13 | 0.9 | 1.7 | 0.00 | 0.00 | 0.00 | 71 | 1010.5 |
| 20260506162507 | 61 | 6 | 0.0 | 0.9 | 0.00 | 0.00 | 0.00 | 70 | 1010.6 |
| 20260506162008 | 62 | 6 | 0.0 | 0.0 | 0.00 | 0.00 | 0.00 | 71 | 1010.6 |
| 20260506161520 | 61 | 6 | 0.0 | 0.9 | 0.00 | 0.00 | 0.00 | 71 | 1010.6 |
| 20260506161007 | 61 | 6 | 0.0 | 1.7 | 0.00 | 0.00 | 0.00 | 71 | 1010.6 |
| 20260506160512 | 62 | 6 | 0.0 | 1.7 | 0.00 | 0.00 | 0.00 | 70 | 1010.5 |
| 20260506160024 | 62 | 16 | 0.0 | 2.6 | 0.00 | 0.00 | 0.00 | 70 | 1010.6 |
| 20260506155505 | 62 | 14 | 1.7 | 2.6 | 0.00 | 0.00 | 0.00 | 70 | 1010.6 |
| 20260506155008 | 62 | 350 | 0.9 | 3.5 | 0.00 | 0.00 | 0.00 | 71 | 1010.6 |
| 20260506154509 | 61 | 5 | 0.9 | 3.5 | 0.00 | 0.00 | 0.00 | 71 | 1010.6 |
| 20260506154010 | 61 | 21 | 0.9 | 3.5 | 0.00 | 0.00 | 0.00 | 70 | 1010.7 |
| 20260506153507 | 61 | 2 | 0.9 | 4.3 | 0.00 | 0.00 | 0.00 | 71 | 1010.9 |
| 20260506153014 | 61 | 208 | 1.7 | 4.3 | 0.00 | 0.00 | 0.00 | 71 | 1010.9 |
| 20260506152506 | 61 | 356 | 1.7 | 6.1 | 0.00 | 0.00 | 0.00 | 71 | 1011.0 |
| 20260506152006 | 61 | 208 | 1.7 | 6.1 | 0.00 | 0.00 | 0.00 | 71 | 1011.0 |
| 20260506151518 | 61 | 302 | 0.9 | 5.2 | 0.00 | 0.00 | 0.00 | 71 | 1011.0 |
| 20260506151009 | 61 | 240 | 0.9 | 5.2 | 0.00 | 0.00 | 0.00 | 72 | 1011.0 |
| 20260506150509 | 61 | 262 | 1.7 | 4.3 | 0.00 | 0.00 | 0.00 | 73 | 1010.9 |
| 20260506150022 | 60 | 23 | 0.9 | 3.5 | 0.00 | 0.00 | 0.00 | 73 | 1010.9 |
| 20260506145511 | 60 | 319 | 0.9 | 3.5 | 0.00 | 0.00 | 0.00 | 73 | 1010.9 |
| 20260506145009 | 60 | 31 | 0.9 | 3.5 | 0.00 | 0.00 | 0.00 | 74 | 1010.9 |
| 20260506144524 | 60 | 20 | 1.7 | 3.5 | 0.00 | 0.00 | 0.00 | 73 | 1010.9 |
| 20260506144003 | 60 | 48 | 0.9 | 2.6 | 0.00 | 0.00 | 0.00 | 73 | 1011.0 |
| 20260506143504 | 60 | 6 | 0.9 | 2.6 | 0.00 | 0.00 | 0.00 | 73 | 1011.0 |
| 20260506143016 | 60 | 231 | 0.0 | 3.5 | 0.00 | 0.00 | 0.00 | 74 | 1011.0 |
| 20260506142506 | 60 | 208 | 1.7 | 3.5 | 0.00 | 0.00 | 0.00 | 72 | 1011.1 |
| 20260506142007 | 60 | 23 | 0.0 | 1.7 | 0.00 | 0.00 | 0.00 | 73 | 1011.0 |
| 20260506141515 | 61 | 186 | 0.9 | 5.2 | 0.00 | 0.00 | 0.00 | 72 | 1011.1 |
| 20260506141011 | 61 | 13 | 1.7 | 5.2 | 0.00 | 0.00 | 0.00 | 71 | 1011.2 |
| 20260506140511 | 60 | 333 | 0.9 | 6.1 | 0.00 | 0.00 | 0.00 | 73 | 1011.3 |
| 20260506140023 | 60 | 226 | 1.7 | 6.1 | 0.00 | 0.00 | 0.00 | 71 | 1011.2 |
| 20260506135510 | 60 | 304 | 1.7 | 5.2 | 0.00 | 0.00 | 0.00 | 72 | 1011.2 |
| 20260506135010 | 60 | 239 | 1.7 | 7.0 | 0.00 | 0.00 | 0.00 | 72 | 1011.4 |
| 20260506134525 | 60 | 23 | 1.7 | 7.0 | 0.00 | 0.00 | 0.00 | 71 | 1011.4 |
| 20260506134009 | 60 | 249 | 1.7 | 5.2 | 0.00 | 0.00 | 0.00 | 71 | 1011.4 |
| 20260506133508 | 60 | 27 | 2.6 | 9.6 | 0.00 | 0.00 | 0.00 | 71 | 1011.4 |
| 20260506133008 | 60 | 327 | 2.6 | 9.6 | 0.00 | 0.00 | 0.00 | 70 | 1011.4 |
| 20260506132504 | 60 | 358 | 2.6 | 9.6 | 0.00 | 0.00 | 0.00 | 70 | 1011.5 |
| 20260506132007 | 61 | 14 | 2.6 | 7.8 | 0.00 | 0.00 | 0.00 | 70 | 1011.5 |
| 20260506131518 | 61 | 238 | 1.7 | 7.0 | 0.00 | 0.00 | 0.00 | 71 | 1011.5 |
| 20260506131008 | 61 | 309 | 2.6 | 6.1 | 0.00 | 0.00 | 0.00 | 70 | 1011.6 |
| 20260506130508 | 61 | 319 | 2.6 | 5.2 | 0.00 | 0.00 | 0.00 | 70 | 1011.5 |
| 20260506130018 | 61 | 238 | 1.7 | 5.2 | 0.00 | 0.00 | 0.00 | 71 | 1011.5 |
| 20260506125509 | 60 | 85 | 1.7 | 6.1 | 0.00 | 0.00 | 0.00 | 71 | 1011.5 |
| 20260506125010 | 60 | 281 | 3.5 | 7.0 | 0.00 | 0.00 | 0.00 | 71 | 1011.6 |
| 20260506124520 | 60 | 321 | 2.6 | 7.0 | 0.00 | 0.00 | 0.00 | 71 | 1011.6 |
| 20260506124008 | 60 | 307 | 2.6 | 6.1 | 0.00 | 0.00 | 0.00 | 72 | 1011.6 |
| 20260506123510 | 60 | 326 | 1.7 | 5.2 | 0.00 | 0.00 | 0.00 | 73 | 1011.6 |
| 20260506123025 | 60 | 200 | 2.6 | 4.3 | 0.00 | 0.00 | 0.00 | 73 | 1011.8 |
| 20260506122510 | 59 | 220 | 1.7 | 4.3 | 0.00 | 0.00 | 0.00 | 75 | 1011.7 |
| 20260506122010 | 59 | 326 | 0.9 | 3.5 | 0.00 | 0.00 | 0.00 | 74 | 1011.9 |
| 20260506121509 | 59 | 321 | 0.9 | 5.2 | 0.00 | 0.00 | 0.00 | 74 | 1011.9 |
| 20260506121003 | 59 | 344 | 0.9 | 5.2 | 0.00 | 0.00 | 0.00 | 74 | 1012.0 |
| 20260506120503 | 59 | 199 | 1.7 | 3.5 | 0.00 | 0.00 | 0.00 | 74 | 1012.0 |
| 20260506120017 | 59 | 197 | 1.7 | 3.5 | 0.00 | 0.00 | 0.00 | 74 | 1012.0 |
| 20260506115509 | 59 | 319 | 0.9 | 3.5 | 0.00 | 0.00 | 0.00 | 75 | 1011.9 |
| 20260506115007 | 59 | 286 | 0.9 | 2.6 | 0.00 | 0.00 | 0.00 | 74 | 1012.0 |
| 20260506114521 | 59 | 321 | 0.9 | 2.6 | 0.00 | 0.00 | 0.00 | 73 | 1011.9 |
| 20260506114008 | 59 | 312 | 0.9 | 1.7 | 0.00 | 0.00 | 0.00 | 76 | 1012.1 |
| 20260506113511 | 59 | 160 | 0.0 | 3.5 | 0.00 | 0.00 | 0.00 | 76 | 1012.1 |
| 20260506113023 | 59 | 195 | 0.9 | 3.5 | 0.00 | 0.00 | 0.00 | 74 | 1012.2 |
| 20260506112512 | 59 | 328 | 0.9 | 5.2 | 0.00 | 0.00 | 0.00 | 74 | 1012.2 |
| 20260506112009 | 59 | 333 | 1.7 | 5.2 | 0.00 | 0.00 | 0.00 | 73 | 1012.3 |
| 20260506111529 | 59 | 356 | 0.9 | 5.2 | 0.00 | 0.00 | 0.00 | 73 | 1012.3 |
| 20260506111007 | 60 | 307 | 1.7 | 3.5 | 0.00 | 0.00 | 0.00 | 72 | 1012.2 |
| 20260506110507 | 60 | 357 | 1.7 | 3.5 | 0.00 | 0.00 | 0.00 | 72 | 1012.3 |
| 20260506110013 | 60 | 173 | 0.9 | 3.5 | 0.00 | 0.00 | 0.00 | 72 | 1012.4 |
| 20260506105509 | 60 | 197 | 1.7 | 3.5 | 0.00 | 0.00 | 0.00 | 71 | 1012.4 |
| 20260506105005 | 59 | 316 | 0.9 | 3.5 | 0.00 | 0.00 | 0.00 | 72 | 1012.4 |
| 20260506104518 | 59 | 181 | 1.7 | 3.5 | 0.00 | 0.00 | 0.00 | 72 | 1012.4 |
| 20260506104008 | 59 | 207 | 1.7 | 3.5 | 0.00 | 0.00 | 0.00 | 72 | 1012.5 |
| 20260506103508 | 59 | 292 | 0.9 | 5.2 | 0.00 | 0.00 | 0.00 | 73 | 1012.7 |
| 20260506103023 | 59 | 205 | 1.7 | 5.2 | 0.00 | 0.00 | 0.00 | 71 | 1012.6 |
| 20260506102510 | 59 | 189 | 0.9 | 4.3 | 0.00 | 0.00 | 0.00 | 73 | 1012.7 |
| 20260506102009 | 60 | 172 | 1.7 | 3.5 | 0.00 | 0.00 | 0.00 | 73 | 1012.7 |
| 20260506101526 | 60 | 160 | 1.7 | 3.5 | 0.00 | 0.00 | 0.00 | 73 | 1012.8 |
| 20260506101015 | 59 | 193 | 1.7 | 3.5 | 0.00 | 0.00 | 0.00 | 73 | 1012.7 |
| 20260506100509 | 59 | 211 | 0.9 | 3.5 | 0.00 | 0.00 | 0.00 | 73 | 1012.8 |
| 20260506100027 | 58 | 318 | 0.9 | 3.5 | 0.00 | 0.00 | 0.00 | 73 | 1012.9 |
| 20260506095511 | 58 | 194 | 0.9 | 3.5 | 0.00 | 0.00 | 0.00 | 74 | 1012.9 |
| 20260506095005 | 58 | 1 | 0.9 | 3.5 | 0.00 | 0.00 | 0.00 | 75 | 1012.9 |
| 20260506094515 | 58 | 186 | 0.9 | 1.7 | 0.00 | 0.00 | 0.00 | 77 | 1012.9 |
| 20260506094009 | 58 | 176 | 0.9 | 1.7 | 0.00 | 0.00 | 0.00 | 78 | 1012.9 |
| 20260506093510 | 58 | 23 | 0.9 | 6.1 | 0.00 | 0.00 | 0.00 | 77 | 1012.9 |
| 20260506093034 | 58 | 25 | 2.6 | 6.1 | 0.00 | 0.00 | 0.00 | 76 | 1012.8 |
| 20260506092507 | 57 | 214 | 0.9 | 3.5 | 0.00 | 0.00 | 0.00 | 77 | 1012.7 |
| 20260506092009 | 57 | 202 | 1.7 | 4.3 | 0.00 | 0.00 | 0.00 | 77 | 1012.8 |
| 20260506091524 | 57 | 11 | 1.7 | 4.3 | 0.00 | 0.00 | 0.00 | 78 | 1012.9 |
| 20260506091009 | 57 | 210 | 1.7 | 4.3 | 0.00 | 0.00 | 0.00 | 79 | 1012.9 |
| 20260506090510 | 57 | 295 | 1.7 | 4.3 | 0.00 | 0.00 | 0.00 | 78 | 1013.0 |
| 20260506090025 | 57 | 3 | 1.7 | 4.3 | 0.00 | 0.00 | 0.00 | 78 | 1013.0 |
| 20260506085508 | 58 | 266 | 1.7 | 6.1 | 0.00 | 0.00 | 0.00 | 77 | 1013.0 |
| 20260506085009 | 58 | 349 | 1.7 | 6.1 | 0.00 | 0.00 | 0.00 | 76 | 1013.0 |
| 20260506084527 | 59 | 198 | 1.7 | 4.3 | 0.00 | 0.00 | 0.00 | 75 | 1012.9 |
| 20260506084012 | 59 | 288 | 1.7 | 5.2 | 0.00 | 0.00 | 0.00 | 74 | 1012.7 |
| 20260506083509 | 59 | 323 | 1.7 | 5.2 | 0.00 | 0.00 | 0.00 | 74 | 1012.6 |
| 20260506083017 | 60 | 303 | 1.7 | 3.5 | 0.00 | 0.00 | 0.00 | 74 | 1012.5 |
| 20260506082511 | 60 | 305 | 0.9 | 3.5 | 0.00 | 0.00 | 0.00 | 75 | 1012.5 |
| 20260506082012 | 60 | 335 | 0.9 | 2.6 | 0.00 | 0.00 | 0.00 | 76 | 1012.3 |
| 20260506081522 | 60 | 315 | 0.9 | 2.6 | 0.00 | 0.00 | 0.00 | 75 | 1012.3 |
| 20260506081013 | 60 | 81 | 0.9 | 1.7 | 0.00 | 0.00 | 0.00 | 76 | 1012.2 |
| 20260506080509 | 60 | 8 | 0.9 | 1.7 | 0.00 | 0.00 | 0.00 | 77 | 1012.2 |
| 20260506073512 | 60 | 313 | 0.0 | 2.6 | 0.00 | 0.00 | 0.00 | 74 | 1012.2 |
| 20260506073027 | 60 | 345 | 0.9 | 2.6 | 0.00 | 0.00 | 0.00 | 73 | 1012.3 |
| 20260506072507 | 61 | 305 | 0.9 | 2.6 | 0.00 | 0.00 | 0.00 | 75 | 1012.3 |
| 20260506072015 | 60 | 18 | 0.9 | 2.6 | 0.00 | 0.00 | 0.00 | 76 | 1012.3 |
| 20260506071518 | 59 | 252 | 0.9 | 3.5 | 0.00 | 0.00 | 0.00 | 77 | 1012.3 |
| 20260506071006 | 58 | 357 | 0.9 | 3.5 | 0.00 | 0.00 | 0.00 | 79 | 1012.5 |